CW3742 Weather Reports


Display with metric or nautical units.
time (UTC)temp
F
wind
direction
speed
MPH
gust
MPH
rain 1hr
in
rain 24hr
in
rain mn
in
humidity
%
barometer
mb
20260504200016 83 0 16.0 27.0 0.00 0.00 0.00 35 999.5
20260504193037 83 0 14.0 27.0 0.00 0.00 0.00 36 999.7
20260504190016 82 0 16.0 26.0 0.00 0.00 0.00 35 999.7
20260504183016 81 0 16.0 24.0 0.00 0.00 0.00 36 999.9
20260504180016 80 0 13.0 21.0 0.00 0.00 0.00 41 1000.0
20260504173016 79 0 15.0 23.0 0.00 0.00 0.00 43 1000.1
20260504050016 60 0 5.0 9.0 0.00 0.00 0.00 58 1006.0
20260504043016 60 0 9.0 10.0 0.00 0.00 0.00 58 1006.3
20260504040016 60 0 8.0 11.0 0.00 0.00 0.00 57 1006.6
20260504033016 61 0 8.0 11.0 0.00 0.00 0.00 56 1006.6
20260504030017 61 0 9.0 12.0 0.00 0.00 0.00 54 1006.6
20260504023016 62 0 9.0 13.0 0.00 0.00 0.00 53 1006.5
20260504020016 64 0 10.0 13.0 0.00 0.00 0.00 51 1006.4
20260504013016 65 0 9.0 12.0 0.00 0.00 0.00 49 1006.3
20260504010017 66 0 10.0 15.0 0.00 0.00 0.00 47 1006.3
20260504003037 69 0 11.0 16.0 0.00 0.00 0.00 43 1006.4
20260504000016 70 0 11.0 15.0 0.00 0.00 0.00 42 1006.3
20260503233017 71 0 14.0 21.0 0.00 0.00 0.00 40 1006.3
20260503230017 72 0 16.0 25.0 0.00 0.00 0.00 38 1006.4
20260503223017 72 0 18.0 26.0 0.00 0.00 0.00 38 1006.5
20260503220037 72 0 17.0 28.0 0.00 0.00 0.00 40 1006.5
20260503213016 72 0 18.0 27.0 0.00 0.00 0.00 41 1006.8
20260503210017 72 0 18.0 30.0 0.00 0.00 0.00 41 1007.0
20260503203017 69 0 19.0 28.0 0.00 0.00 0.00 47 1007.4